User: anonymous   Login
Location: Unspecified
(0.0000°N, 0.0000°E)
Time: 04:35:50
(UTC+00:00)
Language:

Picosat 5 - Orbit

View from above orbital plane
View from above orbital plane
View from above satellite
View from above satellite

Ground track
Ground track

The orbit data is extracted from the following two-line orbital elements,

1 26093U 00004L   17324.36694627  .00000504  00000-0  14217-3 0  9991
2 26093 100.1980 103.7037 0029961 315.3716  44.5061 14.51246814937482
Epoch (UTC): 20 November 2017 08:48:24
Eccentricity: 0.0029961
inclination: 100.1980°
perigee height: 700 km
apogee height: 743 km
right ascension of ascending node: 103.7037°
argument of perigee: 315.3716°
revolutions per day: 14.51246814
mean anomaly at epoch: 44.5061°
orbit number at epoch: 93748

The dashed part of the orbit path shows where the satellite is in the earth's shadow,  

DLR